Погода в Воскресенском

Россия / Тульская область     54°06′10″N   37°06′40″E
темп.,
°C
ветер,
м/с
пор.,
м/с
влажн.,
%
обл.,
%
осадки,
мм/ч
давл.,
гПа
погр.,
м
29 июня, ср
ср2900:00+15всв49705 0.0 1022202
03:00+12всв346761 0.0 102264
06:00+13всв257828 0.0 1022123
09:00+17всв346599 0.0 1022481
12:00+20в3454100 0.0 10221207
15:00+20юв2252100 0.0 10211450
18:00+20юв115581 0.0 10201263
21:00+15св22741 0.0 102013
30 июня, чт
чт3000:00+12юв11840 0.0 102010
03:00+11юв11840 0.0 102010
06:00+14ссв00815 0.0 102040
09:00+18с22650 0.0 1020486
12:00+21с345431 0.0 10191529
15:00+22ссв34514 0.0 10181785
18:00+21св2462100 0.0 1017809
21:00+16ссз22715 0.0 101812
1 июля, пт
пт100:00+13ссв34700 0.0 101953
03:00+11с22750 0.0 102024
06:00+13с25780 0.0 1020122
09:00+19с57675 0.0 1020496
12:00+22ссв58575 0.0 10201916
15:00+23св68515 0.0 10191817
18:00+22св356042 0.0 1019738
21:00+16св22674 0.0 102011
2 июля, сб
сб200:00+13вюв11760 0.0 102111
03:00+12в11730 0.0 102110
06:00+14з117352 0.0 102219
09:00+19сз226132 0.0 1021377
12:00+23сз245177 0.0 10201086
15:00+24ссз245518 0.0 1019826
18:00+24з596920 0.0 1017490
21:00+19зсз47893 5.8 1017114
3 июля, вс
вс300:00+17зсз23913 0.4 101733
03:00+16сз349282 0.4 101763
06:00+17ссз259070 0.0 1017127
09:00+22ссв34765 0.0 1017410
12:00+25с24580 0.0 10181371
15:00+26ссв365234 0.1 10172092
18:00+21зсз35758 0.1 1018120
21:00+20з017794 0.1 101811